(278524) = 2002 TH161 = 2008 DU48

Discovered at Catalina on 2008-02-29 by CSS.

Orbit

Orbit type: Main Belt

Note: WebGL enabled browser required.

epoch2024-03-31.0
epoch JD2460400.5
perihelion date2023-06-26.55532
perihelion JD2460122.05532
argument of perihelion (°)338.76592
ascending node (°)88.73897
inclination (°)15.66571
eccentricity0.0699758
perihelion distance (AU)2.3669321
Tisserand w.r.t. Jupiter3.4
ΔV w.r.t. Earth (km/sec)10.8
semimajor axis (AU)2.5450221
mean anomaly (°)67.59358
mean daily motion (°/day)0.24275410
aphelion distance (AU)2.723
period (years)4.06
P-vector [x]0.36915417
P-vector [y]0.88684597
P-vector [z]0.27790183
Q-vector [x]-0.88929602
Q-vector [y]0.25021642
Q-vector [z]0.38281109
absolute magnitude15.96
phase slope0.15
uncertainty0
referenceMPEC 2024-D127
observations used591
oppositions15
arc length (days)8788
first opposition used2000
last opposition used2024
residual rms (arc-secs)0.83
perturbers coarse indicatorM-v
perturbers precise indicator003Ek
first observation date used2000-02-03.0
last observation date used2024-02-25.0
computer nameMPCLINUX
JD of orbit computation2456966.800244
perihelion JD uncertainty (days)3.6209E-04
argument of perihelion uncertainty (°)9.2332E-05
ascending node uncertainty (°)3.8492E-05
inclination uncertainty (°)7.0761E-06
eccentricity uncertainty 6.4166E-08
perihelion distance uncertainty (AU)1.6842E-07
Minimum Orbit Intersection Distances (in AU)
for orbit epoch: 2460400.5, reference: E2024-F93
Mercury2.06182
Venus1.64937
Earth1.38733
Mars0.79919
Jupiter2.51508
Saturn6.66252
Uranus15.9607
Neptune27.4771

Observations

622 total observations over interval: 2000 02 03.38711 – 2024 02 25.445434
These data are available for download (format description).

Date (UT) J2000 RA J2000 Dec Magn Location Ref
2000 02 03.38711 12 27 32.36 +20 47 03.0   704 – Lincoln Laboratory ETS, New Mexico MPS 407515
2000 02 03.40136 12 27 32.36 +20 47 11.9   704 – Lincoln Laboratory ETS, New Mexico MPS 407515
2000 02 03.42984 12 27 32.18 +20 47 28.0   704 – Lincoln Laboratory ETS, New Mexico MPS 407515
2000 03 04.34110 12 13 31.12 +25 34 28.7   704 – Lincoln Laboratory ETS, New Mexico MPS 407515
2000 03 04.35492 12 13 30.44 +25 34 35.4   704 – Lincoln Laboratory ETS, New Mexico MPS 407515
2000 03 04.36862 12 13 29.63 +25 34 43.1   704 – Lincoln Laboratory ETS, New Mexico MPS 407515
2002 10 05.36661 02 45 21.90 -07 59 22.2 19.3   644 – Palomar Mountain/NEAT MPS 64101
2002 10 05.37830 02 45 21.42 -07 59 25.8 19.4   644 – Palomar Mountain/NEAT MPS 64101
2002 10 05.39138 02 45 20.89 -07 59 29.2 19.1   644 – Palomar Mountain/NEAT MPS 64101
2002 10 06.36415 02 44 42.28 -08 04 00.7 20.0   644 – Palomar Mountain/NEAT MPS 64101
2002 10 06.37731 02 44 41.72 -08 04 04.6 20.0   644 – Palomar Mountain/NEAT MPS 64101
2002 10 06.38914 02 44 41.23 -08 04 07.6 20.3   644 – Palomar Mountain/NEAT MPS 64101
2002 10 07.32453 02 44 02.79 -08 08 23.1 18.8   704 – Lincoln Laboratory ETS, New Mexico MPS 125659
2002 10 07.34028 02 44 02.07 -08 08 26.3 19.0   704 – Lincoln Laboratory ETS, New Mexico MPS 125659
2002 10 07.35674 02 44 01.29 -08 08 32.4 19.2   704 – Lincoln Laboratory ETS, New Mexico MPS 125659
2002 10 07.37226 02 44 00.70 -08 08 34.7 18.7   704 – Lincoln Laboratory ETS, New Mexico MPS 125659
2002 10 07.38776 02 43 59.93 -08 08 39.8 19.1   704 – Lincoln Laboratory ETS, New Mexico MPS 125659
2002 11 05.22085 02 17 21.53 -08 59 58.4 19.3   644 – Palomar Mountain/NEAT MPS 244116
2002 11 05.24208 02 17 20.21 -08 59 56.5 19.6   644 – Palomar Mountain/NEAT MPS 244116
2002 11 05.26364 02 17 18.89 -08 59 54.1 19.4   644 – Palomar Mountain/NEAT MPS 244116
2006 09 24.36661 02 18 20.37 -11 41 07.6 18.9 R 699 – Lowell Observatory-LONEOS MPS 244116
2006 09 24.38855 02 18 19.59 -11 41 14.7   699 – Lowell Observatory-LONEOS MPS 244116
2006 09 24.41048 02 18 18.85 -11 41 22.9   699 – Lowell Observatory-LONEOS MPS 244116
2006 09 24.43242 02 18 18.05 -11 41 32.6   699 – Lowell Observatory-LONEOS MPS 244116
2006 10 21.27331 01 56 14.89 -13 36 23.1 18.8 V 703 – Catalina Sky Survey MPS 244116
2006 10 21.28304 01 56 14.31 -13 36 24.4 18.9 V 703 – Catalina Sky Survey MPS 244116
2006 10 21.29275 01 56 13.74 -13 36 25.1 18.8 V 703 – Catalina Sky Survey MPS 244116
2008 02 03.29472 11 26 17.37 +27 11 10.2 19.7 V 703 – Catalina Sky Survey MPS 243616
2008 02 03.30197 11 26 17.19 +27 11 16.3 19.5 V 703 – Catalina Sky Survey MPS 243616
2008 02 03.30919 11 26 17.05 +27 11 19.7 20.1 V 703 – Catalina Sky Survey MPS 243616
2008 02 03.31638 11 26 16.69 +27 11 25.4 19.9 V 703 – Catalina Sky Survey MPS 243616
2008 02 12.35135 11 20 58.71 +28 50 33.1   704 – Lincoln Laboratory ETS, New Mexico MPS 407515
2008 02 12.36375 11 20 58.13 +28 50 40.9   704 – Lincoln Laboratory ETS, New Mexico MPS 407515
2008 02 12.37621 11 20 57.62 +28 50 48.9   704 – Lincoln Laboratory ETS, New Mexico MPS 407515
2008 02 12.38824 11 20 57.10 +28 50 56.3   704 – Lincoln Laboratory ETS, New Mexico MPS 407515
2008 02 12.40035 11 20 56.51 +28 51 04.4   704 – Lincoln Laboratory ETS, New Mexico MPS 407515
2008 02 18.21966 11 16 28.27 +29 50 34.0 19.9 V 703 – Catalina Sky Survey MPS 243616
2008 02 18.22521 11 16 28.05 +29 50 38.2 19.4 V 703 – Catalina Sky Survey MPS 243616
2008 02 18.23072 11 16 27.69 +29 50 40.2 18.6 V 703 – Catalina Sky Survey MPS 243616
2008 02 18.23623 11 16 27.55 +29 50 42.6 19.2 V 703 – Catalina Sky Survey MPS 243616
2008 02 29.22486 11 06 31.53 +31 24 45.6 19.7 V 703 – Catalina Sky Survey MPS 240934
2008 02 29.23216 11 06 30.99 +31 24 49.1 19.5 V 703 – Catalina Sky Survey MPS 240934
2008 02 29.23947 11 06 30.60 +31 24 52.2 19.4 V 703 – Catalina Sky Survey MPS 240934
2008 02 29.24677 11 06 30.09 +31 24 54.7 19.6 V 703 – Catalina Sky Survey MPS 240934
2008 03 01.27487 11 05 31.08 +31 32 09.4 18.9 r 699 – Lowell Observatory-LONEOS MPS 240934
2008 03 01.30049 11 05 29.42 +31 32 18.5 19.3 r 699 – Lowell Observatory-LONEOS MPS 240934
2008 03 01.32600 11 05 27.82 +31 32 30.1 19.2 r 699 – Lowell Observatory-LONEOS MPS 240934
2008 03 01.35160 11 05 26.34 +31 32 39.5 19.2 r 699 – Lowell Observatory-LONEOS MPS 240934
2008 03 07.43473 10 59 34.76 +32 08 38.3 19.6 V 703 – Catalina Sky Survey MPS 243616
2008 03 07.44492 10 59 34.11 +32 08 41.3 20.0 V 703 – Catalina Sky Survey MPS 243616
2008 03 07.45147 10 59 33.72 +32 08 44.0 19.9 V 703 – Catalina Sky Survey MPS 243616
2008 03 07.45803 10 59 33.39 +32 08 43.5 19.6 V 703 – Catalina Sky Survey MPS 243616
2008 04 01.30022 10 40 22.87 +32 32 02.1 20.0 V 703 – Catalina Sky Survey MPS 244820
2008 04 01.30830 10 40 22.54 +32 32 01.0 19.9 V 703 – Catalina Sky Survey MPS 244820
2008 04 01.31641 10 40 22.36 +32 31 59.7 20.0 V 703 – Catalina Sky Survey MPS 244820
2008 04 01.32453 10 40 22.08 +32 31 57.4 19.8 V 703 – Catalina Sky Survey MPS 244820
2010 09 17.38346 01 49 59.05 -15 18 01.0 18.9 V 703 – Catalina Sky Survey MPS 348071
2010 09 17.38983 01 49 58.90 -15 18 02.7 18.8 V 703 – Catalina Sky Survey MPS 348071
2010 09 17.39622 01 49 58.69 -15 18 05.2 19.1 V 703 – Catalina Sky Survey MPS 348071
2010 09 17.40260 01 49 58.44 -15 18 07.2 19.2 V 703 – Catalina Sky Survey MPS 348071
2010 09 30.36808 01 41 00.35 -16 43 50.8 18.7   704 – Lincoln Laboratory ETS, New Mexico MPS 349538
2010 09 30.38143 01 40 59.70 -16 43 54.4 19.1   704 – Lincoln Laboratory ETS, New Mexico MPS 349538
2010 09 30.40822 01 40 58.30 -16 44 03.3 19.5   704 – Lincoln Laboratory ETS, New Mexico MPS 349538
2010 09 30.42159 01 40 57.60 -16 44 08.2 19.3   704 – Lincoln Laboratory ETS, New Mexico MPS 349538
2010 10 12.29495 01 30 08.92 -17 34 45.2 19.4 V 703 – Catalina Sky Survey MPS 351375
2010 10 12.30131 01 30 08.49 -17 34 46.4 19.1 V 703 – Catalina Sky Survey MPS 351375
2010 10 12.30770 01 30 08.13 -17 34 46.2 19.7 V 703 – Catalina Sky Survey MPS 351375
2010 10 12.31403 01 30 07.81 -17 34 48.7 19.1 V 703 – Catalina Sky Survey MPS 351375
2010 10 24.395775 01 18 35.760 -17 45 14.63 19.79 i F51 – Pan-STARRS 1, Haleakala MPS 365725
2010 10 24.406853 01 18 35.089 -17 45 14.16 19.99 i F51 – Pan-STARRS 1, Haleakala MPS 365725
2011 01 29.26309 01 37 29.031 -01 04 42.60 21.6 w F51 – Pan-STARRS 1, Haleakala MPS 381229
2011 01 29.27296 01 37 29.723 -01 04 34.40 21.9 w F51 – Pan-STARRS 1, Haleakala MPS 381229
2011 01 29.27758 01 37 29.994 -01 04 30.23 21.8 w F51 – Pan-STARRS 1, Haleakala MPS 381229
2012 01 18.48425 10 56 05.96 +27 11 32.8 19.5 V 703 – Catalina Sky Survey MPS 408705
2012 01 18.49039 10 56 05.82 +27 11 37.5 19.1 V 703 – Catalina Sky Survey MPS 408705
2012 01 18.49665 10 56 05.85 +27 11 41.4 19.4 V 703 – Catalina Sky Survey MPS 408705
2012 01 18.50284 10 56 05.67 +27 11 44.5 19.4 V 703 – Catalina Sky Survey MPS 408705
2012 01 22.45209 10 54 58.605 +27 56 15.71 19.6 w F51 – Pan-STARRS 1, Haleakala MPS 410045
2012 01 22.46622 10 54 58.283 +27 56 25.50 19.6 w F51 – Pan-STARRS 1, Haleakala MPS 410045
2012 01 22.48028 10 54 57.959 +27 56 35.20 19.6 w F51 – Pan-STARRS 1, Haleakala MPS 410045
2012 01 22.49431 10 54 57.634 +27 56 44.86 19.5 w F51 – Pan-STARRS 1, Haleakala MPS 410045
2012 02 05.40209 10 47 16.193 +30 35 16.78 19.1 z F51 – Pan-STARRS 1, Haleakala MPS 412894
2012 02 05.40508 10 47 16.050 +30 35 18.75 19.1 z F51 – Pan-STARRS 1, Haleakala MPS 412894
2012 02 05.42601 10 47 15.081 +30 35 32.82 19.1 z F51 – Pan-STARRS 1, Haleakala MPS 412894
2012 02 05.42903 10 47 14.941 +30 35 34.82 19.3 z F51 – Pan-STARRS 1, Haleakala MPS 412894
2012 02 12.55102 10 41 26.155 +31 50 21.65 19.3 i F51 – Pan-STARRS 1, Haleakala MPS 412894
2012 02 12.56291 10 41 25.504 +31 50 28.59 19.3 i F51 – Pan-STARRS 1, Haleakala MPS 412894
2012 02 24.24339 10 30 20.84 +33 29 50.6 19.7 V 703 – Catalina Sky Survey MPS 414077
2012 02 24.25291 10 30 20.23 +33 29 53.6 19.9 V 703 – Catalina Sky Survey MPS 414077
2012 02 24.26241 10 30 19.69 +33 29 57.4 20.2 V 703 – Catalina Sky Survey MPS 414077
2012 02 24.27189 10 30 19.11 +33 30 01.0 19.8 V 703 – Catalina Sky Survey MPS 414077
2012 03 03.20765 10 22 38.24 +34 14 54.2 19.3 V G96 – Mt. Lemmon Survey MPS 416038
